Location: *
(49.9853°N, 3.5569°E)
Time: 06:10:17
(UTC+00:00)

Meteor 1-24 Rocket - Pass Details

Date: 22 September 2019
Orbit: 791 x 926 km, 81.2° (Epoch: 22 October)

Event Time Altitude Azimuth Distance (km) Brightness Sun altitude
Rises 18:50:19 0° 351° (N) 3,464 7.2 -11.3°
Reaches altitude 10° 18:52:53 10° 359° (N) 2,543 6.4 -11.7°
Maximum altitude 18:58:22 42° 70° (ENE) 1,267 4.3 -12.5°
Enters shadow 19:03:17 13° 137° (SE) 2,365 5.5 -13.3°
